Total_Precipitation_Accumulation
1.39 1.40 1.30 1.50 1.60 1.64 1.70 1.75 1.70 1.61 1.59 1.42 1.42 1.44 1.46 1.33 1.44 1.58 2.01 2.42 2.92 3.63 3.82 3.47 3.15 2.94 2.73 2.58 2.66 2.69 2.77 2.85 2.93 2.92 2.96 3.33 3.47 3.04 2.98 3.00 3.07 3.50 3.96
1.23 1.44 1.34 1.35 1.47 1.67 1.80 1.81 1.75 1.82 1.79 1.57 1.54 1.60 1.59 1.53 1.57 1.63 1.81 1.84 2.00 2.58 3.22 3.57 3.65 3.46 3.10 2.86 2.71 2.78 2.96 2.95 2.82 2.76 2.80 3.05 3.26 2.94 2.91 3.04 3.05 3.35 3.74
1.16 1.42 1.36 1.26 1.27 1.44 1.65 1.89 1.96 1.95 1.73 1.63 1.66 1.67 1.57 1.56 1.57 1.76 1.82 1.86 1.78 1.87 2.32 2.78 3.27 3.41 3.41 3.23 2.92 2.82 3.02 3.01 2.89 2.75 2.73 2.77 3.01 2.98 2.99 3.11 3.08 3.27 3.45
0.97 1.24 1.33 1.24 1.23 1.42 1.69 1.96 2.14 2.17 1.95 1.92 1.97 1.89 1.67 1.62 1.57 1.71 1.79 1.87 1.97 1.76 1.77 1.91 2.27 2.74 3.07 3.13 3.18 3.11 3.12 3.01 2.79 2.67 2.51 2.47 2.68 2.84 3.00 3.05 3.01 3.16 3.27
0.91 1.18 1.41 1.43 1.41 1.58 1.71 1.72 1.97 2.13 2.24 2.15 1.99 1.86 1.78 1.77 1.74 1.69 1.84 1.84 1.90 1.84 1.70 1.45 1.49 1.84 2.35 2.75 3.03 3.13 3.29 3.15 2.84 2.67 2.39 2.27 2.39 2.65 3.00 2.79 2.76 2.86 3.11
1.10 1.34 1.59 1.62 1.70 1.78 1.87 2.09 2.37 2.38 2.30 2.31 2.08 1.82 1.69 1.72 1.78 1.88 1.88 1.87 1.93 1.77 1.61 1.44 1.36 1.30 1.74 2.19 2.57 2.88 3.07 3.15 3.00 2.92 2.62 2.28 2.25 2.43 2.78 2.69 2.66 2.77 3.02
1.29 1.52 1.71 1.95 2.08 1.97 2.00 2.28 2.57 2.68 2.47 2.29 2.39 2.24 2.05 1.87 1.85 1.80 1.80 1.87 1.90 1.86 1.74 1.67 1.59 1.45 1.52 1.69 1.95 2.42 2.73 2.95 3.04 3.12 2.98 2.60 2.40 2.36 2.45 2.39 2.41 2.72 3.07
1.40 1.43 1.69 1.88 1.98 2.08 2.11 2.24 2.55 2.88 2.66 2.36 2.59 3.01 2.79 2.56 2.05 1.70 1.83 1.87 1.93 1.91 1.81 1.65 1.67 1.58 1.56 1.73 1.47 1.55 2.03 2.56 3.02 3.19 3.06 2.84 2.65 2.40 2.40 2.33 2.26 2.41 2.70
1.75 1.70 1.73 1.84 1.93 2.12 2.26 2.31 2.39 2.74 2.79 2.54 2.50 3.11 3.11 2.92 2.67 2.14 1.78 1.83 1.96 2.03 2.00 1.89 1.76 1.71 1.63 1.76 1.59 1.27 1.43 1.80 2.42 2.93 3.16 3.02 2.82 2.53 2.44 2.40 2.34 2.41 2.49
2.06 2.06 2.05 2.13 2.06 2.06 2.15 2.13 2.15 2.40 2.73 2.78 2.59 2.42 2.40 2.51 2.87 2.62 2.04 1.88 1.91 1.93 2.05 1.91 1.90 1.95 1.91 1.84 1.73 1.39 1.14 1.29 1.86 2.61 3.13 3.09 2.89 2.72 2.57 2.51 2.38 2.34 2.38
2.68 2.63 2.54 2.36 2.14 2.07 2.13 2.16 2.20 2.31 2.44 2.60 2.57 2.39 2.34 2.30 2.17 2.38 2.36 2.13 1.92 1.80 1.91 1.94 1.94 1.96 2.02 1.97 1.87 1.53 1.17 1.02 1.29 1.99 2.68 2.93 2.95 2.84 2.74 2.65 2.49 2.32 2.17
2.67 2.63 2.44 2.15 1.98 1.91 1.99 2.15 2.16 2.23 2.24 2.32 2.28 2.15 2.15 2.15 2.11 2.26 2.20 2.21 2.18 1.80 1.66 1.73 1.80 1.87 1.81 1.82 1.68 1.77 1.43 1.10 1.04 1.41 1.94 2.42 2.75 2.94 2.90 2.94 2.76 2.50 2.28
2.03 2.06 2.04 2.00 1.91 1.80 1.87 2.09 2.17 2.20 2.20 2.18 2.11 2.01 2.04 1.91 1.97 2.26 2.35 2.26 2.14 1.79 1.60 1.53 1.60 1.65 1.55 1.65 1.75 1.93 1.64 1.37 1.16 1.21 1.45 1.75 2.06 2.41 2.84 3.12 3.22 3.08 2.93
1.77 1.82 1.86 1.90 1.85 1.78 1.78 1.90 2.02 2.12 2.12 2.05 1.99 2.10 2.10 1.89 1.96 2.03 2.15 2.35 2.22 1.95 1.71 1.48 1.42 1.38 1.44 1.51 1.75 1.98 1.47 1.40 1.25 1.15 1.14 1.28 1.53 1.79 2.15 2.64 3.03 3.15 3.18
1.40 1.51 1.63 1.72 1.68 1.66 1.65 1.78 1.92 1.94 2.02 2.09 2.10 2.10 2.10 2.01 2.02 2.05 2.22 2.35 2.36 2.13 1.89 1.64 1.49 1.34 1.41 1.48 1.76 1.65 1.39 1.40 1.29 1.20 1.15 1.13 1.24 1.44 1.69 1.85 2.06 2.20 2.38
1.29 1.31 1.28 1.31 1.30 1.35 1.36 1.44 1.62 1.71 1.73 1.81 1.84 1.89 1.92 1.89 1.99 2.00 2.11 2.25 2.26 2.19 2.04 1.76 1.57 1.50 1.57 1.50 1.65 1.52 1.49 1.63 1.43 1.25 1.16 1.13 1.15 1.24 1.32 1.38 1.48 1.55 1.58
0.99 1.02 0.94 0.96 1.06 1.08 1.02 1.11 1.23 1.31 1.41 1.49 1.49 1.54 1.61 1.60 1.77 1.82 1.94 2.07 2.15 2.14 1.92 1.69 1.57 1.60 1.66 1.67 1.61 1.50 1.47 1.48 1.42 1.31 1.16 1.09 1.11 1.15 1.19 1.27 1.33 1.36 1.38
0.73 0.74 0.70 0.70 0.81 0.92 0.93 1.01 1.08 1.07 1.15 1.27 1.36 1.40 1.39 1.40 1.53 1.61 1.71 1.80 1.97 2.06 1.97 1.80 1.66 1.57 1.48 1.55 1.69 1.70 1.66 1.55 1.54 1.58 1.46 1.32 1.27 1.20 1.15 1.24 1.34 1.33 1.32
0.66 0.65 0.61 0.65 0.69 0.76 0.90 0.95 0.96 0.95 0.96 0.98 1.05 1.08 1.13 1.25 1.41 1.46 1.49 1.60 1.78 1.88 1.99 1.90 1.79 1.69 1.52 1.48 1.67 1.64 1.67 1.84 1.73 1.78 1.89 1.73 1.52 1.34 1.21 1.25 1.35 1.35 1.28
0.62 0.62 0.57 0.58 0.67 0.75 0.82 0.91 0.91 0.87 0.86 0.90 0.94 0.93 0.92 0.99 1.13 1.28 1.37 1.54 1.73 1.91 2.02 1.99 1.94 1.86 1.74 1.61 1.68 1.80 1.84 1.91 1.90 1.70 1.74 1.76 1.75 1.62 1.42 1.30 1.36 1.42 1.43
0.56 0.56 0.53 0.58 0.63 0.66 0.70 0.86 0.88 0.86 0.89 0.85 0.86 0.89 0.91 0.92 0.96 1.04 1.04 1.24 1.46 1.74 1.91 2.01 1.99 1.97 1.88 1.77 1.67 1.83 1.90 2.01 2.09 2.04 1.92 1.74 1.73 1.59 1.48 1.42 1.40 1.45 1.53
0.53 0.53 0.52 0.57 0.57 0.53 0.76 0.86 0.85 0.87 0.93 0.97 0.93 0.91 0.88 0.87 0.97 0.98 0.96 1.01 1.17 1.37 1.57 1.68 1.73 1.77 1.81 1.87 1.97 1.97 1.94 1.98 2.05 2.04 1.90 1.91 1.86 1.78 1.59 1.40 1.45 1.50 1.55
0.51 0.52 0.54 0.56 0.54 0.53 0.59 0.62 0.71 0.80 0.93 0.97 0.92 1.00 1.03 0.92 0.97 1.00 1.06 1.01 0.97 1.03 1.22 1.42 1.52 1.55 1.64 1.71 1.95 1.98 1.97 1.98 1.87 1.89 1.77 1.83 1.78 1.69 1.62 1.57 1.61 1.52 1.54
0.49 0.50 0.59 0.60 0.53 0.48 0.52 0.52 0.59 0.68 0.80 0.84 0.85 0.93 1.15 1.17 1.08 1.08 1.15 1.20 1.08 0.93 0.97 1.05 1.23 1.40 1.48 1.66 1.97 2.18 2.13 1.90 1.80 1.81 1.71 1.74 1.66 1.56 1.53 1.49 1.58 1.50 1.47
0.47 0.46 0.50 0.57 0.52 0.48 0.51 0.51 0.55 0.62 0.71 0.72 0.76 0.89 1.02 1.12 1.11 1.12 1.08 1.14 1.17 1.04 1.01 1.07 1.07 1.17 1.34 1.53 1.81 2.09 2.18 2.11 1.89 1.79 1.64 1.58 1.57 1.56 1.61 1.55 1.51 1.56 1.51
0.50 0.52 0.52 0.50 0.48 0.47 0.51 0.53 0.57 0.57 0.60 0.58 0.63 0.82 1.04 1.00 1.00 1.06 1.07 1.16 1.27 1.10 1.03 1.13 1.11 1.13 1.17 1.41 1.80 1.99 2.11 2.12 1.99 1.90 1.72 1.64 1.61 1.64 1.86 1.80 1.58 1.50 1.49